Location: Corralito
(14.1667°N, 87.1833°W)
Time: 08:20:22
(UTC+00:00)

Nadezhda 4 Rocket - Pass Details

Date: 02 October 2020
Orbit: 949 x 993 km, 82.9° (Epoch: 20 October)

Event Time Altitude Azimuth Distance (km) Brightness Sun altitude
Rises 00:10:13 0° 4° (N) 3,623 6.9 -8.7°
Reaches altitude 10° 00:12:46 10° 9° (N) 2,682 6.2 -9.3°
Maximum altitude 00:18:44 54° 85° (E) 1,155 4.1 -10.7°
Drops below altitude 10° 00:24:46 10° 162° (SSE) 2,708 6.2 -12.2°
Sets 00:27:20 0° 166° (SSE) 3,661 6.9 -12.8°
